Location: Sungai Jaoh
(2.9167°N, 113.9167°E)
Time: 04:56:50
(UTC+00:00)

Cosmos 1805 Rocket - Pass Details

Date: 30 November 2020
Orbit: 605 x 631 km, 82.5° (Epoch: 25 January)

Event Time Altitude Azimuth Distance (km) Brightness Sun altitude
Rises 21:28:59 0° 176° (S) 2,879 7.4 -11.4°
Reaches altitude 10° 21:31:14 10° 171° (S) 1,977 6.6 -10.8°
Maximum altitude 21:35:31 54° 94° (E) 753 4.4 -9.9°
Drops below altitude 10° 21:39:49 10° 16° (NNE) 1,986 6.1 -8.9°
Sets 21:42:05 0° 12° (NNE) 2,893 6.9 -8.3°
